CW4957 Weather Reports


Display with metric or nautical units.
time (UTC)temp
F
wind
direction
speed
MPH
gust
MPH
rain 1hr
in
rain 24hr
in
rain mn
in
humidity
%
barometer
mb
20170921211837 74 82 0.0 1.0 0.00 0.00 0.00 61 1016.7
20170921211329 74 82 0.0 2.0 0.00 0.00 0.00 61 1016.8
20170921210827 74 83 0.0 2.0 0.00 0.00 0.00 60 1016.8
20170921210338 74 83 0.0 2.0 0.00 0.00 0.00 59 1016.8
20170921205830 74 28 1.0 2.0 0.00 0.00 0.00 59 1016.9
20170921205324 74 75 1.0 5.0 0.00 0.00 0.00 59 1016.9
20170921204831 75 75 1.0 5.0 0.00 0.00 0.00 58 1016.9
20170921204316 75 20 1.0 2.0 0.00 0.00 0.00 58 1016.7
20170921203830 75 117 1.0 2.0 0.00 0.00 0.00 59 1016.7
20170921203334 75 76 1.0 3.0 0.00 0.00 0.00 58 1016.7
20170921202823 75 121 0.0 3.0 0.00 0.00 0.00 57 1016.7
20170921202327 75 24 0.0 4.0 0.00 0.00 0.00 58 1016.7
20170921201838 75 24 1.0 4.0 0.00 0.00 0.00 56 1016.7
20170921201326 75 46 0.0 2.0 0.00 0.00 0.00 58 1016.7
20170921200819 75 46 1.0 3.0 0.00 0.00 0.00 56 1016.7
20170921200316 75 13 1.0 3.0 0.00 0.00 0.00 57 1016.7
20170921195829 75 5 1.0 3.0 0.00 0.00 0.00 55 1016.7
20170921195323 76 44 1.0 4.0 0.00 0.00 0.00 57 1016.7
20170921194835 76 19 2.0 4.0 0.00 0.00 0.00 56 1016.7
20170921194326 76 104 1.0 3.0 0.00 0.00 0.00 57 1016.7
20170921193833 76 29 1.0 4.0 0.00 0.00 0.00 57 1016.7
20170921193322 76 78 2.0 3.0 0.00 0.00 0.00 58 1016.7
20170921192831 76 34 1.0 3.0 0.00 0.00 0.00 58 1016.6
20170921192325 77 17 2.0 3.0 0.00 0.00 0.00 58 1016.6
20170921191837 77 19 0.0 3.0 0.00 0.00 0.00 60 1016.6
20170921191324 77 46 1.0 3.0 0.00 0.00 0.00 61 1016.5
20170921190816 77 88 1.0 3.0 0.00 0.00 0.00 60 1016.5
20170921190315 77 341 1.0 4.0 0.00 0.00 0.00 59 1016.5
20170921185830 77 166 1.0 3.0 0.00 0.00 0.00 59 1016.5
20170921185326 78 28 2.0 3.0 0.00 0.00 0.00 61 1016.5
20170921184819 78 22 1.0 2.0 0.00 0.00 0.00 61 1016.5
20170921184327 78 175 1.0 3.0 0.00 0.00 0.00 63 1016.2
20170921183831 78 11 0.0 2.0 0.00 0.00 0.00 64 1016.2
20170921183321 78 80 1.0 3.0 0.00 0.00 0.00 63 1016.2
20170921182823 78 90 1.0 5.0 0.00 0.00 0.00 66 1016.2
20170921182330 77 5 1.0 5.0 0.00 0.00 0.00 67 1016.2
20170921181822 77 33 0.0 3.0 0.00 0.00 0.00 66 1016.2
20170921181331 77 38 1.0 3.0 0.00 0.00 0.00 66 1016.2
20170921180820 77 5 1.0 4.0 0.00 0.00 0.00 66 1016.2
20170921180318 77 77 1.0 4.0 0.00 0.00 0.00 67 1016.2
20170921175828 77 90 1.0 5.0 0.00 0.00 0.00 68 1016.5
20170921175320 77 9 1.0 4.0 0.00 0.00 0.00 67 1016.5
20170921174828 77 9 0.0 4.0 0.00 0.00 0.00 67 1016.5
20170921174336 77 13 1.0 3.0 0.00 0.00 0.00 67 1016.7
20170921173829 77 14 1.0 3.0 0.00 0.00 0.00 66 1016.7
20170921173320 77 125 1.0 2.0 0.00 0.00 0.00 68 1016.7
20170921172832 77 5 0.0 2.0 0.00 0.00 0.00 67 1016.7
20170921172323 77 5 1.0 3.0 0.00 0.00 0.00 67 1016.7
20170921171832 77 5 0.0 3.0 0.00 0.00 0.00 69 1016.7
20170921171324 77 5 2.0 3.0 0.00 0.00 0.00 67 1016.9
20170921170835 77 5 1.0 3.0 0.00 0.00 0.00 67 1016.9
20170921170332 77 5 1.0 3.0 0.00 0.00 0.00 67 1016.9
20170921165828 77 355 1.0 3.0 0.00 0.00 0.00 68 1017.1
20170921165333 76 5 0.0 2.0 0.00 0.00 0.00 70 1017.1
20170921164821 76 5 1.0 2.0 0.00 0.00 0.00 69 1017.1
20170921164337 76 5 0.0 3.0 0.00 0.00 0.00 70 1017.2
20170921163828 76 5 0.0 3.0 0.00 0.00 0.00 69 1017.2
20170921163320 76 27 0.0 4.0 0.00 0.00 0.00 70 1017.2
20170921162829 76 13 1.0 4.0 0.00 0.00 0.00 69 1017.3
20170921162324 75 344 1.0 3.0 0.00 0.00 0.00 69 1017.3
20170921161833 75 113 1.0 3.0 0.00 0.00 0.00 70 1017.3
20170921161330 75 34 1.0 4.0 0.00 0.00 0.00 71 1017.3
20170921160823 75 36 1.0 6.0 0.00 0.00 0.00 70 1017.3
20170921160332 75 21 2.0 6.0 0.00 0.00 0.00 69 1017.3
20170921155823 75 20 1.0 5.0 0.00 0.00 0.00 70 1017.5
20170921155335 75 19 0.0 3.0 0.00 0.00 0.00 71 1017.5
20170921154823 75 19 1.0 5.0 0.00 0.00 0.00 70 1017.5
20170921154330 75 31 3.0 4.0 0.00 0.00 0.00 70 1017.6
20170921153821 75 14 1.0 7.0 0.00 0.00 0.00 71 1017.6
20170921153328 75 22 2.0 7.0 0.00 0.00 0.00 71 1017.6
20170921152820 74 84 1.0 5.0 0.00 0.00 0.00 72 1017.7
20170921152330 74 112 1.0 5.0 0.00 0.00 0.00 73 1017.7
20170921151825 74 48 2.0 4.0 0.00 0.00 0.00 71 1017.7
20170921151322 74 14 1.0 5.0 0.00 0.00 0.00 73 1017.7
20170921150816 74 12 2.0 4.0 0.00 0.00 0.00 72 1017.7
20170921150315 74 5 2.0 4.0 0.00 0.00 0.00 72 1017.7
20170921145826 74 27 2.0 4.0 0.00 0.00 0.00 72 1017.7
20170921145320 74 44 1.0 3.0 0.00 0.00 0.00 73 1017.7
20170921144827 74 19 0.0 4.0 0.00 0.00 0.00 74 1017.7
20170921144333 74 30 1.0 4.0 0.00 0.00 0.00 72 1017.7
20170921143825 74 41 2.0 4.0 0.00 0.00 0.00 72 1017.7
20170921143334 73 18 1.0 7.0 0.00 0.00 0.00 74 1017.7
20170921142826 73 18 2.0 7.0 0.00 0.00 0.00 72 1017.7
20170921142336 73 5 3.0 7.0 0.00 0.00 0.00 72 1017.7
20170921141827 73 21 3.0 6.0 0.00 0.00 0.00 73 1017.7
20170921141318 73 16 3.0 7.0 0.00 0.00 0.00 73 1017.6
20170921140833 73 39 2.0 6.0 0.00 0.00 0.00 73 1017.6
20170921140333 73 25 3.0 6.0 0.00 0.00 0.00 74 1017.6
20170921135830 72 33 1.0 6.0 0.00 0.00 0.00 77 1017.5
20170921135321 72 17 2.0 6.0 0.00 0.00 0.00 76 1017.5
20170921134816 71 30 3.0 7.0 0.00 0.00 0.00 76 1017.5
20170921134330 71 15 3.0 7.0 0.00 0.00 0.00 76 1017.6
20170921133835 71 360 2.0 6.0 0.00 0.00 0.00 77 1017.6
20170921133331 71 5 2.0 6.0 0.00 0.00 0.00 77 1017.6
20170921132823 71 17 2.0 7.0 0.00 0.00 0.00 78 1017.3
20170921132336 70 33 2.0 7.0 0.00 0.00 0.00 78 1017.3
20170921131827 70 5 1.0 5.0 0.00 0.00 0.00 79 1017.3
20170921131320 70 38 2.0 5.0 0.00 0.00 0.00 80 1017.2
20170921130834 70 17 2.0 5.0 0.00 0.00 0.00 80 1017.2
20170921130329 70 5 2.0 4.0 0.00 0.00 0.00 81 1017.2
20170921125837 70 15 1.0 3.0 0.00 0.00 0.00 82 1016.9
20170921125327 69 22 1.0 3.0 0.00 0.00 0.00 83 1016.9
20170921124819 69 23 0.0 3.0 0.00 0.00 0.00 83 1016.9
20170921124335 69 22 1.0 3.0 0.00 0.00 0.00 84 1017.0
20170921123829 69 24 0.0 4.0 0.00 0.00 0.00 83 1017.0
20170921123321 69 19 0.0 4.0 0.00 0.00 0.00 84 1017.0
20170921122833 68 19 2.0 4.0 0.00 0.00 0.00 84 1016.9
20170921122326 68 10 1.0 4.0 0.00 0.00 0.00 84 1016.9
20170921121816 68 24 1.0 3.0 0.00 0.00 0.00 85 1016.9
20170921121321 68 14 0.0 5.0 0.00 0.00 0.00 85 1016.9
20170921120828 68 23 2.0 3.0 0.00 0.00 0.00 85 1016.9
20170921120327 68 18 1.0 5.0 0.00 0.00 0.00 86 1016.9
20170921115822 67 5 1.0 3.0 0.00 0.00 0.00 86 1016.8
20170921115326 67 360 0.0 2.0 0.00 0.00 0.00 87 1016.8
20170921114832 67 360 0.0 2.0 0.00 0.00 0.00 87 1016.8
20170921114322 67 5 0.0 0.0 0.00 0.00 0.00 87 1016.7
20170921113829 67 5 0.0 2.0 0.00 0.00 0.00 87 1016.7
20170921113322 67 5 0.0 3.0 0.00 0.00 0.00 87 1016.7
20170921112833 67 355 1.0 3.0 0.00 0.00 0.00 87 1016.6
20170921112320 67 328 1.0 2.0 0.00 0.00 0.00 87 1016.6
20170921111829 67 328 1.0 2.0 0.00 0.00 0.00 87 1016.6
20170921111324 67 355 0.0 1.0 0.00 0.00 0.00 87 1016.5
20170921110818 67 355 0.0 2.0 0.00 0.00 0.00 87 1016.5
20170921110331 67 355 1.0 2.0 0.00 0.00 0.00 87 1016.5
20170921105836 67 355 0.0 2.0 0.00 0.00 0.00 87 1016.4
20170921105322 67 355 0.0 2.0 0.00 0.00 0.00 87 1016.4
20170921104829 67 355 0.0 1.0 0.00 0.00 0.00 86 1016.4
20170921104320 67 355 0.0 1.0 0.00 0.00 0.00 86 1016.1
20170921103832 67 355 0.0 1.0 0.00 0.00 0.00 86 1016.1
20170921103320 67 355 0.0 2.0 0.00 0.00 0.00 86 1016.1
20170921102830 67 355 0.0 2.0 0.00 0.00 0.00 86 1015.8
20170921102322 67 355 0.0 2.0 0.00 0.00 0.00 86 1015.8
20170921101833 67 355 0.0 1.0 0.00 0.00 0.00 86 1015.8
20170921101324 67 355 0.0 2.0 0.00 0.00 0.00 86 1015.6
20170921100817 67 355 1.0 2.0 0.00 0.00 0.00 85 1015.6
20170921100333 67 355 1.0 2.0 0.00 0.00 0.00 85 1015.6
20170921095826 68 11 0.0 0.0 0.00 0.00 0.00 85 1015.3
20170921095336 68 11 0.0 0.0 0.00 0.00 0.00 85 1015.3
20170921094827 68 11 0.0 1.0 0.00 0.00 0.00 85 1015.3
20170921094336 68 11 0.0 1.0 0.00 0.00 0.00 85 1015.3
20170921093829 68 11 0.0 2.0 0.00 0.00 0.00 85 1015.3
20170921093321 68 11 1.0 2.0 0.00 0.00 0.00 85 1015.3
20170921092830 68 11 0.0 2.0 0.00 0.00 0.00 85 1015.3
20170921092324 68 11 1.0 3.0 0.00 0.00 0.00 85 1015.3
20170921091817 68 12 2.0 3.0 0.00 0.00 0.00 85 1015.3
20170921091330 68 360 1.0 2.0 0.00 0.00 0.00 85 1015.2
20170921090820 68 360 0.0 2.0 0.00 0.00 0.00 85 1015.2
20170921090316 68 360 0.0 2.0 0.00 0.00 0.00 85 1015.2
20170921085828 68 360 0.0 2.0 0.00 0.00 0.00 85 1015.2
20170921085324 68 360 1.0 3.0 0.00 0.00 0.00 86 1015.2
20170921084824 68 360 1.0 3.0 0.00 0.00 0.00 86 1015.2
20170921084334 68 17 0.0 2.0 0.00 0.00 0.00 86 1015.1
20170921083826 68 17 0.0 2.0 0.00 0.00 0.00 86 1015.1
20170921083316 68 17 1.0 2.0 0.00 0.00 0.00 86 1015.1
20170921082831 68 17 0.0 3.0 0.00 0.00 0.00 86 1015.0
20170921082322 68 18 1.0 3.0 0.00 0.00 0.00 86 1015.0
20170921081830 68 62 1.0 2.0 0.00 0.00 0.00 86 1015.0
20170921081317 68 63 0.0 2.0 0.00 0.00 0.00 87 1014.9
20170921080823 68 63 0.0 2.0 0.00 0.00 0.00 87 1014.9
20170921080324 68 63 1.0 2.0 0.00 0.00 0.00 87 1014.9
20170921075835 68 63 1.0 2.0 0.00 0.00 0.00 87 1014.9
20170921075326 68 96 1.0 2.0 0.00 0.00 0.00 87 1014.9
20170921074820 68 9 0.0 4.0 0.00 0.00 0.00 88 1014.9
20170921074333 68 5 1.0 4.0 0.00 0.00 0.00 88 1014.9
20170921073823 68 13 1.0 2.0 0.00 0.00 0.00 88 1014.9
20170921073316 68 13 0.0 2.0 0.00 0.00 0.00 89 1014.9
20170921072826 68 13 0.0 3.0 0.00 0.00 0.00 89 1014.7
20170921072317 68 13 0.0 3.0 0.00 0.00 0.00 90 1014.7
20170921071833 67 12 0.0 2.0 0.00 0.00 0.00 90 1014.7
20170921071320 67 12 1.0 3.0 0.00 0.00 0.00 90 1014.6
20170921070835 67 15 0.0 3.0 0.00 0.00 0.00 91 1014.6
20170921070316 67 125 1.0 3.0 0.00 0.00 0.00 91 1014.6
20170921065833 67 5 0.0 1.0 0.00 0.00 0.00 91 1014.4
20170921065320 67 5 0.0 1.0 0.00 0.00 0.00 92 1014.4
20170921064833 67 5 0.0 3.0 0.00 0.00 0.00 92 1014.4
20170921064322 67 5 1.0 3.0 0.00 0.00 0.00 92 1014.5
20170921063835 67 360 0.0 1.0 0.00 0.00 0.00 92 1014.5
20170921063333 67 360 0.0 1.0 0.00 0.00 0.00 92 1014.5
20170921062825 66 360 0.0 0.0 0.00 0.00 0.00 92 1014.5
20170921062334 66 360 0.0 0.0 0.00 0.00 0.00 92 1014.5
20170921061823 66 360 0.0 0.0 0.00 0.00 0.00 92 1014.5
20170921061331 66 360 0.0 0.0 0.00 0.00 0.00 92 1014.3
20170921060819 66 360 0.0 0.0 0.00 0.00 0.00 92 1014.3
20170921060316 66 360 0.0 0.0 0.00 0.00 0.00 92 1014.3
20170921055822 66 360 0.0 0.0 0.00 0.00 0.00 92 1014.3
20170921055335 66 360 0.0 0.0 0.00 0.00 0.00 92 1014.3
20170921054826 66 360 0.0 0.0 0.00 0.00 0.00 92 1014.3
20170921054336 66 360 0.0 0.0 0.00 0.00 0.00 92 1014.6
20170921053829 66 360 0.0 0.0 0.00 0.00 0.00 92 1014.6
20170921053323 66 360 0.0 0.0 0.00 0.00 0.00 92 1014.6
20170921052834 66 360 0.0 0.0 0.00 0.00 0.00 91 1014.6
20170921052324 66 360 0.0 1.0 0.00 0.00 0.00 91 1014.6
20170921051833 66 360 0.0 1.0 0.00 0.00 0.00 91 1014.6
20170921051324 66 360 0.0 0.0 0.00 0.00 0.00 91 1014.6
20170921050835 66 360 0.0 0.0 0.00 0.00 0.00 91 1014.6
20170921050336 67 360 0.0 0.0 0.00 0.00 0.00 91 1014.6
20170921045829 67 360 0.0 0.0 0.00 0.00 0.00 91 1014.6
20170921045337 67 360 0.0 0.0 0.00 0.00 0.00 90 1014.6
20170921044823 67 360 0.0 0.0 0.00 0.00 0.00 90 1014.6
20170921044333 67 360 0.0 0.0 0.00 0.00 0.00 90 1014.6
20170921043820 67 360 0.0 0.0 0.00 0.00 0.00 91 1014.6
20170921043334 67 360 0.0 1.0 0.00 0.00 0.00 90 1014.6
20170921042830 67 360 0.0 1.0 0.00 0.00 0.00 91 1014.6
20170921042319 67 360 0.0 0.0 0.00 0.00 0.00 90 1014.6
20170921041834 67 360 0.0 0.0 0.00 0.00 0.00 90 1014.6
20170921041321 67 360 0.0 0.0 0.00 0.00 0.00 90 1014.5
20170921040837 67 360 0.0 0.0 0.00 0.00 0.00 90 1014.5
20170921040317 67 360 0.0 0.0 0.00 0.00 0.00 90 1014.5
20170921035827 67 360 0.0 0.0 0.00 0.00 0.00 89 1014.4
20170921035321 67 360 0.0 0.0 0.00 0.00 0.00 89 1014.4
20170921034825 68 360 0.0 0.0 0.00 0.00 0.00 89 1014.4
20170921034333 68 360 0.0 0.0 0.00 0.00 0.00 89 1014.2
20170921033821 68 360 0.0 0.0 0.00 0.00 0.00 89 1014.2
20170921033333 68 360 0.0 0.0 0.00 0.00 0.00 89 1014.2
20170921032821 68 360 0.0 0.0 0.00 0.00 0.00 88 1014.1
20170921032336 68 360 0.0 0.0 0.00 0.00 0.00 88 1014.1
20170921031826 68 360 0.0 0.0 0.00 0.00 0.00 88 1014.1
20170921031333 68 360 0.0 0.0 0.00 0.00 0.00 88 1014.1
20170921030826 68 360 0.0 0.0 0.00 0.00 0.00 88 1014.1
20170921030324 68 360 0.0 0.0 0.00 0.00 0.00 88 1014.1
20170921025836 68 360 0.0 0.0 0.00 0.00 0.00 87 1014.1
20170921025328 68 360 0.0 0.0 0.00 0.00 0.00 87 1014.1
20170921024839 69 360 0.0 0.0 0.00 0.00 0.00 87 1014.1
20170921024327 69 360 0.0 0.0 0.00 0.00 0.00 86 1014.0
20170921023838 69 360 0.0 0.0 0.00 0.00 0.00 86 1014.0
20170921023322 69 360 0.0 0.0 0.00 0.00 0.00 86 1014.0
20170921022836 69 360 0.0 0.0 0.00 0.00 0.00 86 1014.0
20170921022330 69 360 0.0 0.0 0.00 0.00 0.00 86 1014.0
20170921021825 69 360 0.0 0.0 0.00 0.00 0.00 85 1014.0
20170921021336 69 360 0.0 0.0 0.00 0.00 0.00 86 1013.9
20170921020825 69 360 0.0 0.0 0.00 0.00 0.00 86 1013.9
20170921020336 70 360 0.0 0.0 0.00 0.00 0.00 86 1013.9
20170921015824 70 360 0.0 0.0 0.00 0.00 0.00 85 1013.7
20170921015336 70 360 0.0 0.0 0.00 0.00 0.00 85 1013.7
20170921014826 70 360 0.0 0.0 0.00 0.00 0.00 85 1013.7
20170921014335 70 360 0.0 0.0 0.00 0.00 0.00 85 1013.8
20170921013836 70 360 0.0 0.0 0.00 0.00 0.00 84 1013.8
20170921013324 70 360 0.0 0.0 0.00 0.00 0.00 84 1013.8
20170921012837 70 360 0.0 0.0 0.00 0.00 0.00 84 1013.9
20170921012328 71 360 0.0 0.0 0.00 0.00 0.00 84 1013.9
20170921011823 71 360 0.0 0.0 0.00 0.00 0.00 83 1013.9
20170921011333 71 360 0.0 0.0 0.00 0.00 0.00 83 1014.0
20170921010831 71 360 0.0 0.0 0.00 0.00 0.00 83 1014.0
20170921010328 71 360 0.0 0.0 0.00 0.00 0.00 83 1014.0
20170921005836 71 360 0.0 0.0 0.00 0.00 0.00 83 1013.9
20170921005327 71 360 0.0 0.0 0.00 0.00 0.00 83 1013.9
20170921004838 71 360 0.0 0.0 0.00 0.00 0.00 83 1013.9
20170921004331 71 360 0.0 0.0 0.00 0.00 0.00 83 1013.8
20170921003835 72 360 0.0 0.0 0.00 0.00 0.00 83 1013.8
20170921003326 72 360 0.0 0.0 0.00 0.00 0.00 83 1013.8
20170921002830 72 360 0.0 0.0 0.00 0.00 0.00 82 1013.7
20170921002323 72 360 0.0 0.0 0.00 0.00 0.00 82 1013.7
20170921001833 72 360 0.0 0.0 0.00 0.00 0.00 82 1013.7
20170921001324 72 360 0.0 0.0 0.00 0.00 0.00 81 1013.6
20170921000833 72 360 0.0 0.0 0.00 0.00 0.00 81 1013.6
20170921000323 72 360 0.0 0.0 0.00 0.00 0.00 81 1013.6
20170920235835 73 360 0.0 0.0 0.00 0.00 0.00 81 1013.6
20170920235323 73 360 0.0 0.0 0.00 0.00 0.00 80 1013.6
20170920234834 73 360 0.0 0.0 0.00 0.00 0.00 81 1013.6
20170920234325 73 360 0.0 0.0 0.00 0.00 0.00 80 1013.2
20170920233840 73 360 0.0 0.0 0.00 0.00 0.00 80 1013.2
20170920233325 73 360 0.0 0.0 0.00 0.00 0.00 79 1013.2
20170920232817 73 360 0.0 0.0 0.00 0.00 0.00 79 1013.2
20170920232330 73 360 0.0 0.0 0.00 0.00 0.00 79 1013.2
20170920231838 74 360 0.0 0.0 0.00 0.00 0.00 79 1013.2
20170920231327 74 360 0.0 0.0 0.00 0.00 0.00 78 1013.1
20170920230816 74 360 0.0 0.0 0.00 0.00 0.00 78 1013.1
20170920230337 74 360 0.0 0.0 0.00 0.00 0.00 77 1013.1
20170920225828 74 360 0.0 0.0 0.00 0.00 0.00 77 1013.1
20170920225336 74 360 0.0 0.0 0.00 0.00 0.00 77 1013.1
20170920224828 74 360 0.0 1.0 0.00 0.00 0.00 77 1013.1
20170920224337 74 360 0.0 1.0 0.00 0.00 0.00 77 1013.0
20170920223829 74 360 0.0 1.0 0.00 0.00 0.00 77 1013.0
20170920223324 75 360 0.0 1.0 0.00 0.00 0.00 76 1013.0
20170920222836 75 360 0.0 1.0 0.00 0.00 0.00 76 1013.1
20170920222328 75 360 0.0 2.0 0.00 0.00 0.00 76 1013.1
20170920221837 75 360 0.0 2.0 0.00 0.00 0.00 76 1013.1
20170920221327 75 360 0.0 2.0 0.00 0.00 0.00 76 1013.0
20170920220838 75 360 1.0 2.0 0.00 0.00 0.00 75 1013.0
20170920220330 75 360 0.0 2.0 0.00 0.00 0.00 76 1013.0
20170920215825 75 360 1.0 2.0 0.00 0.00 0.00 75 1013.0
20170920215333 75 360 0.0 3.0 0.00 0.00 0.00 75 1013.0
20170920214831 75 355 1.0 3.0 0.00 0.00 0.00 76 1013.0
20170920214331 76 18 0.0 1.0 0.00 0.00 0.00 76 1012.9
20170920213826 76 18 0.0 3.0 0.00 0.00 0.00 76 1012.9
20170920213336 76 18 1.0 3.0 0.00 0.00 0.00 75 1012.9
20170920212825 76 18 0.0 2.0 0.00 0.00 0.00 75 1012.7
20170920212317 76 18 0.0 1.0 0.00 0.00 0.00 74 1012.7